User: anonymous   Login
Location: Plymouth
(43.7570°N, 71.6890°W)
Time: 11:55:58
(UTC-04:00)
Language:

Meteor 1-28 Rocket - Orbit

View from above orbital plane
View from above orbital plane
View from above satellite
View from above satellite

Ground track
Ground track

The orbit data is extracted from the following two-line orbital elements,

1 10114U 77057B   15210.15328113  .00000866  00000-0  49055-4 0  9993
2 10114 097.2255 056.0825 0013845 199.4838 160.5868 15.15431371 79144
Epoch (UTC): 29 July 2015 03:40:43
Eccentricity: 0.0013845
inclination: 97.2255°
perigee height: 510 km
apogee height: 529 km
right ascension of ascending node: 56.0825°
argument of perigee: 199.4838°
revolutions per day: 15.15431371
mean anomaly at epoch: 160.5868°
orbit number at epoch: 7914

The dashed part of the orbit path shows where the satellite is in the earth's shadow,  

DLR